Location: Flynn Junction
(40.1314°N, 99.5162°W)
Time: 20:56:02
(UTC+00:00)

Cosmos 2266 Rocket - Pass Details

Date: 29 October 2020
Orbit: 935 x 1007 km, 82.9° (Epoch: 30 November)

Event Time Altitude Azimuth Distance (km) Brightness Sun altitude
Rises 12:27:43 0° 184° (S) 3,578 7.1 -7.7°
Reaches altitude 10° 12:30:11 10° 184° (S) 2,637 6.4 -7.2°
Maximum altitude 12:36:12 87° 97° (E) 944 4.0 -6.1°
Drops below altitude 10° 12:42:18 10° 8° (N) 2,670 6.3 -5.0°
Sets 12:44:48 0° 8° (N) 3,626 6.9 -4.5°
